Location: Beaurevoir
(49.9971°N, 3.3085°E)
Time: 04:44:27
(UTC+00:00)

Meteor 1-4 Rocket - Pass Details

Date: 23 May 2024
Orbit: 358 x 378 km, 81.2° (Epoch: 19 June)

Event Time Altitude Azimuth Distance (km) Brightness Sun altitude
Exits shadow 00:59:35 31° 122° (ESE) 669 3.1 -17.4°
Maximum altitude 01:00:09 34° 96° (E) 621 3.2 -17.3°
Drops below altitude 10° 01:02:50 10° 29° (NNE) 1,354 6.1 -17.2°
Enters shadow 01:55:41 -72° 193° (SSW) 12,525 9.6 -13.5°
